Date,TemperatureHighF,TemperatureAvgF,TemperatureLowF,DewpointHighF,DewpointAvgF,DewpointLowF,HumidityHigh,HumidityAvg,HumidityLow,PressureMaxIn,PressureMinIn,WindSpeedMaxMPH,WindSpeedAvgMPH,GustSpeedMaxMPH,PrecipitationSumIn
2013-1-14,16.2,9.0,4.3,-0.6,-3.7,-5.4,65,56,43,30.31,30.16,11,4,11,0.00
2013-1-15,32.2,21.5,8.8,15.1,8.4,-0.6,71,57,44,30.19,29.76,14,6,14,0.00
2013-1-16,38.1,27.6,15.3,30.7,15.0,-8.1,85,61,30,30.13,29.57,17,7,17,0.00
2013-1-17,21.9,13.9,6.1,5.5,-4.1,-16.5,59,45,28,30.30,30.15,10,4,10,0.00
2013-1-18,43.0,31.5,18.0,30.1,21.4,5.7,78,66,54,30.19,29.62,14,5,14,0.00
2013-1-19,40.6,24.8,3.9,30.1,14.1,-12.7,84,65,41,30.12,29.57,30,8,30,0.04
2013-1-20,3.7,2.6,0.3,-12.8,-13.8,-16.8,47,46,43,30.27,30.15,10,4,10,0.00
2013-1-21,3.2,3.2,3.2,-13.0,-13.0,-13.0,46,46,46,30.27,30.27,4,4,4,0.00
2013-1-25,3.2,3.2,3.2,-13.0,-13.0,-13.0,46,46,46,30.27,30.27,4,4,4,0.00
2013-1-26,3.2,3.2,3.2,-13.0,-13.0,-13.0,46,46,46,30.27,30.27,4,4,4,0.00
2013-1-27,3.2,3.2,3.2,-13.0,-13.0,-13.0,46,46,46,30.27,30.27,4,4,4,0.00
2013-1-28,3.2,3.2,3.2,-13.0,-13.0,-13.0,46,46,46,30.27,30.27,4,4,4,0.00
2013-1-31,3.2,3.2,3.2,-13.0,-13.0,-13.0,46,46,46,30.27,30.27,4,4,4,0.00
2013-2-1,3.2,3.2,3.2,-13.0,-13.0,-13.0,46,46,46,30.27,30.27,4,4,4,0.00
2013-2-2,3.2,3.2,3.2,-13.0,-13.0,-13.0,46,46,46,30.27,30.27,4,4,4,0.00
2013-2-3,3.2,3.2,3.2,-13.0,-13.0,-13.0,46,46,46,30.27,30.27,4,4,4,0.00
2013-2-4,3.2,3.2,3.2,-13.0,-13.0,-13.0,46,46,46,30.27,30.27,4,4,4,0.00
2013-2-5,3.2,3.2,3.2,-13.0,-13.0,-13.0,46,46,46,30.27,30.27,4,4,4,0.00
2013-2-6,3.2,3.2,3.2,-13.0,-13.0,-13.0,46,46,46,30.27,30.27,4,4,4,0.00
2013-2-7,3.2,3.2,3.2,-13.0,-13.0,-13.0,46,46,46,30.27,30.27,4,4,4,0.00
2013-2-8,3.2,3.2,3.2,-13.0,-13.0,-13.0,46,46,46,30.27,30.27,4,4,4,0.00
2013-2-9,3.2,3.2,3.2,-13.0,-13.0,-13.0,46,46,46,30.27,30.27,4,4,4,0.00
2013-5-22,54.5,50.3,46.4,52.3,49.1,45.8,99,96,73,29.88,29.58,17,8,17,0.17
2013-5-23,65.3,55.3,45.9,45.4,35.7,28.7,85,52,26,30.24,29.89,13,7,13,0.00
2013-5-24,69.6,56.2,37.4,55.8,41.9,30.7,97,62,36,30.29,30.07,12,4,12,0.14
2013-5-25,61.5,57.3,53.8,53.3,50.1,45.8,97,78,61,30.14,30.10,14,6,14,0.02
2013-5-26,59.5,56.6,53.4,50.7,45.4,39.1,74,66,50,30.10,29.92,19,5,19,0.00
2013-5-27,62.4,58.1,54.7,57.8,53.8,50.0,99,86,71,29.91,29.72,9,4,9,0.05
2013-5-28,60.8,58.3,53.8,58.7,57.0,52.9,99,96,92,29.72,29.61,6,1,6,0.12
2013-5-29,60.3,60.3,60.3,58.5,58.5,58.5,94,94,94,29.65,29.65,0,0,0,0.12
2013-6-2,60.3,60.3,60.3,58.5,58.5,58.5,94,94,94,29.65,29.65,0,0,0,0.00
2013-6-6,60.3,60.3,60.3,58.5,58.5,58.5,94,94,94,29.65,29.65,0,0,0,0.00
2013-6-8,60.3,60.3,60.3,58.5,58.5,58.5,94,94,94,29.65,29.65,0,0,0,0.12
2013-6-9,60.3,60.3,60.3,58.5,58.5,58.5,94,94,94,29.65,29.65,0,0,0,0.00
2013-7-3,86.7,73.2,56.8,66.5,57.4,48.8,99,64,28,29.93,29.78,8,2,8,0.00
2013-7-4,90.1,78.0,64.8,65.0,59.8,55.8,85,56,32,29.81,29.68,14,4,14,0.00
2013-7-5,88.0,80.1,71.2,66.5,63.0,59.6,69,57,44,29.76,29.67,17,8,17,0.00
2013-7-6,90.5,82.6,74.1,68.5,65.8,63.1,71,58,46,29.74,29.67,11,5,11,0.00
2013-7-7,92.7,83.2,75.2,76.7,69.9,65.3,82,65,50,29.75,29.68,13,4,13,0.00
2013-7-8,91.0,79.0,68.5,72.7,69.6,66.4,96,75,49,29.85,29.76,6,3,6,0.00
2013-7-9,87.1,80.0,70.7,74.3,71.7,69.5,98,77,63,29.82,29.64,16,5,16,0.38
2013-7-10,82.6,82.6,82.6,70.9,70.9,70.9,68,68,68,29.69,29.69,8,8,8,0.00
2013-7-11,86.9,74.8,59.2,67.8,60.4,57.3,99,65,40,29.97,29.82,11,4,11,0.00
2013-7-12,89.1,79.6,70.0,65.1,62.1,58.7,72,56,43,29.87,29.74,15,8,15,0.00
2013-7-13,80.4,74.6,65.7,71.6,67.1,60.8,99,79,57,29.89,29.76,17,6,17,3.54
2013-7-14,75.2,75.2,75.2,66.7,66.7,66.7,75,75,75,29.88,29.88,6,6,6,0.00
2013-7-15,75.2,75.2,75.2,66.7,66.7,66.7,75,75,75,29.88,29.88,6,6,6,0.00
2013-7-16,75.2,75.2,75.2,66.7,66.7,66.7,75,75,75,29.88,29.88,6,6,6,0.00
2013-7-21,75.2,75.2,75.2,66.7,66.7,66.7,75,75,75,29.88,29.88,6,6,6,0.00
2013-7-23,75.2,75.2,75.2,66.7,66.7,66.7,75,75,75,29.88,29.88,6,6,6,0.00
2013-7-24,79.5,68.1,58.5,62.3,59.0,55.5,91,74,52,29.94,29.83,4,1,4,0.00
2013-7-25,82.4,73.8,61.9,69.7,64.0,58.6,97,73,46,29.83,29.75,8,3,8,0.04
2013-7-26,71.1,66.2,59.2,67.1,57.4,48.4,95,74,57,29.93,29.75,15,6,15,0.00
2013-7-27,63.9,58.6,53.1,53.1,50.1,47.6,89,74,58,29.93,29.80,10,4,10,0.02
2013-7-28,75.6,62.8,53.4,56.2,51.8,47.9,94,69,48,29.93,29.83,8,4,8,0.00
2013-7-29,79.0,66.8,51.6,61.4,56.5,51.3,99,73,45,30.00,29.93,10,2,10,0.00
2013-7-30,72.9,68.1,63.7,66.9,64.5,59.9,97,88,74,29.96,29.93,6,2,6,0.05
2013-7-31,72.1,72.1,72.1,66.3,66.3,66.3,82,82,82,29.93,29.93,2,2,2,0.00
2013-8-2,72.1,72.1,72.1,66.3,66.3,66.3,82,82,82,29.93,29.93,2,2,2,0.00
2013-8-3,72.1,72.1,72.1,66.3,66.3,66.3,82,82,82,29.93,29.93,2,2,2,0.00
2013-8-4,72.1,72.1,72.1,66.3,66.3,66.3,82,82,82,29.93,29.93,2,2,2,0.05
2013-8-5,72.1,72.1,72.1,66.3,66.3,66.3,82,82,82,29.93,29.93,2,2,2,0.00
2013-8-6,86.2,69.1,57.4,69.0,63.2,57.1,99,84,55,29.70,29.54,12,3,12,1.39
2013-8-7,62.2,61.3,60.1,61.7,60.8,59.8,99,98,98,29.74,29.64,2,0,2,0.00
2013-8-16,80.8,69.3,56.8,63.5,58.9,54.9,99,73,41,30.05,29.99,8,2,8,0.00
2013-8-17,82.8,69.4,55.4,64.0,58.0,55.1,99,72,41,30.06,29.95,11,3,11,0.00
2013-8-18,83.3,72.2,58.6,62.8,59.8,56.9,96,67,46,30.00,29.85,12,4,12,0.00
2013-8-19,87.6,76.2,66.9,71.4,66.3,60.5,86,72,55,29.87,29.73,10,4,10,0.00
2013-8-20,89.2,80.1,71.4,75.1,71.5,67.2,89,76,62,29.76,29.70,11,4,11,0.00
2013-8-21,88.7,79.6,72.3,78.3,74.0,65.5,94,84,65,29.84,29.69,6,2,6,0.01
2013-8-22,87.8,77.1,69.1,65.2,57.2,53.6,69,51,32,29.97,29.85,9,2,9,0.00
2013-8-23,75.6,75.6,75.6,57.7,57.7,57.7,54,54,54,29.93,29.93,0,0,0,0.00
2013-8-24,75.6,75.6,75.6,57.7,57.7,57.7,54,54,54,29.93,29.93,0,0,0,0.00
2013-9-2,69.1,60.4,53.4,56.0,53.8,52.5,98,80,62,29.95,29.83,7,1,7,0.00
2013-9-3,79.2,62.4,47.8,63.4,55.8,47.6,99,82,48,29.97,29.86,6,1,6,0.00
2013-9-4,89.2,72.7,57.2,69.4,62.7,56.9,99,75,44,29.99,29.87,10,1,10,0.00
2013-9-5,85.6,73.6,63.7,69.2,62.9,55.4,86,70,54,30.07,29.94,9,2,9,0.00
2013-9-6,90.9,79.6,70.2,72.1,68.3,64.0,98,72,44,29.94,29.70,10,4,10,0.02
2013-9-7,91.9,80.7,69.3,73.2,69.2,64.6,95,70,46,29.87,29.69,12,4,12,0.00
2013-9-8,72.5,68.3,67.3,65.6,61.2,59.8,86,78,76,29.90,29.87,9,2,9,0.00
2013-9-9,68.0,68.0,68.0,60.2,60.2,60.2,76,76,76,29.90,29.90,1,1,1,0.00
2013-9-10,68.0,68.0,68.0,60.2,60.2,60.2,76,76,76,29.90,29.90,1,1,1,0.00
2013-9-11,68.0,68.0,68.0,60.2,60.2,60.2,76,76,76,29.90,29.90,1,1,1,0.00
2013-9-14,68.0,68.0,68.0,60.2,60.2,60.2,76,76,76,29.90,29.90,1,1,1,0.00
2013-9-15,68.0,68.0,68.0,60.2,60.2,60.2,76,76,76,29.90,29.90,1,1,1,0.00
2013-10-28,55.0,45.3,38.7,46.7,38.0,30.0,99,80,39,29.87,29.73,8,2,8,0.06
2013-10-29,49.6,41.2,36.0,41.7,37.5,33.9,99,87,72,29.76,29.56,6,1,6,0.01
2013-10-30,48.0,37.5,30.2,42.8,35.6,29.7,99,93,74,29.72,29.49,9,1,9,0.05
2013-10-31,40.1,36.5,29.1,36.2,25.0,20.4,87,63,51,29.84,29.73,10,3,10,0.00
2013-11-1,41.4,32.3,24.3,35.2,27.2,21.8,97,82,64,29.90,29.83,8,0,8,0.00
2013-11-2,38.3,35.6,32.7,33.4,28.4,19.9,89,76,54,29.97,29.89,5,1,5,0.00
2013-11-3,34.7,34.6,33.8,25.9,24.9,20.1,70,68,56,30.00,29.97,2,1,2,0.00
2013-11-4,34.7,34.7,34.7,25.9,25.9,25.9,70,70,70,30.00,30.00,1,1,1,0.00
2013-11-5,34.7,34.7,34.7,25.9,25.9,25.9,70,70,70,30.00,30.00,1,1,1,0.00
2013-11-10,34.7,34.7,34.7,25.9,25.9,25.9,70,70,70,30.00,30.00,1,1,1,0.00
2013-11-11,58.8,40.1,34.5,41.7,31.0,23.2,73,70,52,30.19,29.86,12,5,12,0.00
2013-11-13,41.5,41.5,41.5,33.2,33.2,33.2,72,72,72,29.86,29.86,7,7,7,0.00
2013-11-15,41.5,41.5,41.5,33.2,33.2,33.2,72,72,72,29.86,29.86,7,7,7,0.00
2013-11-16,41.5,41.5,41.5,33.2,33.2,33.2,72,72,72,29.86,29.86,7,7,7,0.00
2013-11-17,41.5,41.5,41.5,33.2,33.2,33.2,72,72,72,29.86,29.86,7,7,7,0.00